[[{"header":{"parameterUnit":"m.s-1","parameterCategory":1,"la1":30.2992,"la2":30.254,"lo1":-89.0895,"lo2":-89.0443,"dy":0.0025,"dx":0.0025,"nx":19,"ny":19,"refTime":"2026-03-31T09:00:00:Z","depth":0,"parameterNumber":2,"parameterNumberName":"U-component_of_WINDS"},"data":[0,0,0,-4.124,-4.1243,-4.138,-4.138,-4.1559,-4.1561,0,0,0,0,0,0,0,0,0,0,0,-4.1202,-4.1203,-4.124,-4.1243,-4.138,-4.138,-4.1559,-4.1561,0,0,0,0,0,0,0,0,0,0,0,-4.1201,-4.1203,-4.1204,-4.1244,-4.138,-4.138,-4.1558,-4.1454,0,0,0,0,0,0,0,0,0,0,-4.132,-4.1287,-4.1202,-4.1204,-4.1244,-4.138,-4.138,-4.1448,-4.146,-4.1499,0,-4.1534,0,-4.155,-4.1573,-4.1573,0,0,0,-4.1241,-4.1278,-4.1313,-4.1205,-4.1246,-4.1379,-4.1317,-4.1455,-4.1468,-4.1514,-4.1537,-4.1543,-4.1553,-4.1574,-4.1575,-4.1807,-4.1808,0,0,-4.1233,-4.1227,-4.1304,-4.1321,-4.1301,-4.1313,-4.1322,-4.1463,-4.1487,-4.1537,-4.1547,-4.1556,-4.1575,-4.1577,-4.1806,-4.1807,0,0,0,-4.1213,-4.1222,-4.1254,-4.1314,-4.1338,-4.1317,-4.1327,-4.148,-4.1491,-4.1549,-4.1558,-4.1576,-4.1579,-4.1804,-4.1806,-4.1858,0,0,0,-4.1208,-4.121,-4.125,-4.1248,-4.1336,-4.1411,-4.1341,-4.1481,-4.1497,-4.1557,-4.1576,-4.158,-4.1803,-4.1805,-4.1854,-4.1883,0,0,0,-4.1192,-4.1208,-4.1229,-4.1248,-4.1306,-4.1409,-4.1428,-4.1485,-4.1503,-4.1574,-4.1581,-4.1802,-4.1805,-4.185,-4.1877,-4.1941,0,0,0,-4.1172,-4.1273,-4.123,-4.1347,-4.1305,-4.1441,-4.1427,-4.1528,-4.1595,-4.1577,-4.1803,-4.1806,-4.1849,-4.1873,-4.1937,-4.1993,-4.2017,0,0,-4.1296,-4.1288,-4.1357,-4.1323,-4.1465,-4.1421,-4.1571,-4.1637,-4.1649,-4.1753,-4.1759,-4.1855,-4.1876,-4.194,-4.2153,-4.2172,0,0,0,-4.1394,-4.1443,-4.1483,-4.1546,-4.1601,-4.1649,-4.1694,-4.1719,-4.1808,-4.1702,-4.1898,-4.191,-4.1948,-4.1975,-4.1991,-4.2023,-4.1819,-4.1818,-4.1818,-4.1558,-4.157,-4.1685,-4.1713,-4.1776,-4.1822,-4.1873,-4.1915,-4.1907,-4.1954,-4.1983,-4.2111,-4.2143,-4.2155,-4.2188,-4.2016,-4.2016,-4.2016,-4.2017,-4.1739,-4.181,-4.18,-4.1908,-4.192,-4.201,-4.206,-4.2052,-4.2137,-4.2089,-4.2123,-4.2067,-4.2175,-4.2204,-4.2021,-4.202,-4.2019,-4.2019,-4.2019,-4.1846,-4.1882,-4.1912,-4.2007,-4.2079,-4.2105,-4.2189,-4.2197,-4.2205,-4.2238,-4.2271,-4.227,-4.2268,-4.2254,-4.2254,-4.2255,-4.2255,-4.2256,-4.2256,-4.1943,-4.1976,-4.2045,-4.2114,-4.2156,-4.2214,-4.2264,-4.2307,-4.2355,-4.2355,-4.2355,-4.2342,-4.2184,-4.2143,-4.2263,-4.2261,-4.2261,-4.226,-4.2259,-4.2117,-4.208,-4.2187,-4.223,-4.2312,-4.2383,-4.2394,-4.248,-4.2517,-4.2558,-4.254,-4.2422,-4.2414,-4.2401,-4.2367,-4.2538,-4.2538,-4.2538,-4.2538,-4.2205,-4.2203,-4.2315,-4.2384,-4.2453,-4.2474,-4.2595,-4.2636,-4.2672,-4.2695,-4.2673,-4.2629,-4.2616,-4.2615,-4.2598,-4.2566,-4.2784,-4.2784,-4.2784,-4.2312,-4.2318,-4.2418,-4.2454,-4.252,-4.2576,-4.2689,-4.2769,-4.2802,-4.2795,-4.2714,-4.2703,-4.2633,-4.261,-4.2596,-4.2569,-4.2511,0,0]},{"header":{"parameterUnit":"m.s-1","parameterCategory":1,"la1":30.2992,"la2":30.254,"lo1":-89.0895,"lo2":-89.0443,"dy":0.0025,"dx":0.0025,"nx":19,"ny":19,"refTime":"2026-03-31T09:00:00:Z","depth":0,"parameterNumber":3,"parameterNumberName":"V-component_of_WINDS"},"data":[0,0,0,2.5479,2.548,2.5524,2.5524,2.5581,2.5581,0,0,0,0,0,0,0,0,0,0,0,2.5468,2.5468,2.5479,2.5481,2.5524,2.5524,2.5581,2.5581,0,0,0,0,0,0,0,0,0,0,0,2.5468,2.5468,2.5469,2.5481,2.5524,2.5524,2.5581,2.5547,0,0,0,0,0,0,0,0,0,0,2.5505,2.5495,2.5468,2.5469,2.5481,2.5524,2.5524,2.5546,2.5549,2.5562,0,2.5574,0,2.5579,2.5585,2.5586,0,0,0,2.5479,2.5492,2.5503,2.5469,2.5481,2.5524,2.5504,2.5548,2.5552,2.5567,2.5575,2.5577,2.558,2.5586,2.5586,2.5667,2.5667,0,0,2.5477,2.5476,2.55,2.5506,2.55,2.5503,2.5505,2.555,2.5558,2.5575,2.5578,2.5581,2.5586,2.5587,2.5667,2.5667,0,0,0,2.5471,2.5474,2.5484,2.5504,2.5512,2.5504,2.5507,2.5556,2.556,2.5579,2.5581,2.5586,2.5587,2.5666,2.5667,2.5689,0,0,0,2.5469,2.5471,2.5483,2.5483,2.5511,2.5535,2.5512,2.5557,2.5562,2.5581,2.5587,2.5588,2.5666,2.5667,2.5688,2.57,0,0,0,2.5465,2.547,2.5477,2.5483,2.5502,2.5534,2.554,2.5558,2.5563,2.5586,2.5588,2.5665,2.5666,2.5686,2.5697,2.5722,0,0,0,2.5459,2.5494,2.5477,2.5518,2.5501,2.5548,2.5539,2.5573,2.5595,2.5587,2.5666,2.5667,2.5686,2.5696,2.5721,2.5744,2.5753,0,0,2.5503,2.55,2.5524,2.551,2.556,2.5541,2.5594,2.5613,2.5615,2.565,2.5652,2.5688,2.5697,2.5722,2.5804,2.5812,0,0,0,2.5538,2.5555,2.5569,2.5591,2.5608,2.5624,2.5636,2.5644,2.5674,2.5633,2.5703,2.5709,2.5723,2.5734,2.5741,2.5754,2.5672,2.5672,2.5671,2.5598,2.5602,2.5643,2.5651,2.5673,2.5687,2.5704,2.5717,2.5711,2.5728,2.5738,2.5788,2.5801,2.5806,2.582,2.575,2.575,2.575,2.575,2.5665,2.5691,2.5686,2.5724,2.5727,2.5759,2.5774,2.577,2.58,2.578,2.5793,2.5772,2.5814,2.5826,2.5752,2.5752,2.5751,2.5751,2.5751,2.5705,2.5718,2.5729,2.5763,2.5789,2.5796,2.5826,2.5827,2.5828,2.584,2.5853,2.5852,2.5853,2.5846,2.5846,2.5847,2.5847,2.5847,2.5847,2.5743,2.5755,2.5781,2.5805,2.582,2.5841,2.5857,2.5872,2.5889,2.5887,2.5887,2.5881,2.5818,2.5802,2.585,2.5849,2.5849,2.5849,2.5848,2.581,2.5796,2.5836,2.5853,2.5882,2.5909,2.591,2.5942,2.5954,2.5969,2.5961,2.5914,2.591,2.5905,2.5892,2.596,2.596,2.596,2.596,2.5845,2.5844,2.5887,2.5913,2.5939,2.5945,2.5991,2.6005,2.6016,2.6025,2.6015,2.5998,2.5993,2.5992,2.5985,2.5973,2.606,2.606,2.606,2.5887,2.5889,2.5929,2.5942,2.5966,2.5986,2.603,2.606,2.6069,2.6064,2.6031,2.6027,2.6,2.599,2.5984,2.5973,2.5951,0,0]}]]